Regional Weather Roundup
Issued by NWS

Home | Current Version | Previous Version | Graphics & Text | Print | Product List | Glossary On
Versions: 1 2 3 4 5 6 7 8 9 10 11 12 13 14 15 16 17 18 19 20 21 22 23 24 25 26 27 28 29 30 31 32 33 34 35 36 37 38 39 40 41 42 43 44 45 46 47 48 49 50
000
ASUS44 KMEG 311700
RWRTN
TENNESSEE HOURLY STATE WEATHER ROUNDUP
NATIONAL WEATHER SERVICE MEMPHIS TN
1200 PM CDT FRI OCT 31 2014

TNZ002-004-019-021-049-052-054-088>092-311800-
WEST TENNESSEE

CITY           SKY/WX    TMP DP  RH WIND       PRES   REMARKS
MEMPHIS INTL   CLOUDY    56  46  69 N15G23    30.14R
NWS MEMPHIS      N/A     54 N/A N/A MISG        N/A
JACKSON        CLOUDY    54  46  74 N15       30.10R
DYERSBURG      PTSUNNY   54  36  50 N23G29    30.15R
UNION CITY     CLOUDY    50  39  66 N17       30.12R
PARIS          CLOUDY    50  43  76 N13       30.09S
LEXINGTON      CLOUDY    54  45  71 N10       30.06S
SAVANNAH       CLOUDY    57  46  67 N13       30.05F
$$

TNZ008-025-027-028-033-062-065-066-311800-
NORTH MIDDLE TENNESSEE

CITY           SKY/WX    TMP DP  RH WIND       PRES   REMARKS
NASHVILLE      CLOUDY    51  45  79 NW7       30.03F
CLARKSVILLE    CLOUDY    51  45  79 NW13      30.05F
COOKEVILLE     CLOUDY    48  46  93 NW5       29.98F
CROSSVILLE     CLOUDY    49  42  77 NW7       29.97F
$$

TNZ061-075-076-078-094-096-097-311800-
SOUTH MIDDLE TENNESSEE

CITY           SKY/WX    TMP DP  RH WIND       PRES   REMARKS
SHELBYVILLE    CLOUDY    54  48  82 NW10      30.01F
$$

TNZ017-018-042-046-047-311800-
NORTHEAST TENNESSEE

CITY           SKY/WX    TMP DP  RH WIND       PRES   REMARKS
TRI CITIES     CLOUDY    49  40  71 VRB6      29.92F
ELIZABETHTON   CLOUDY    52  39  62 W6        29.90F
$$

TNZ012-013-036-069-073-074-311800-
CENTRAL EAST TENNESSEE

CITY           SKY/WX    TMP DP  RH WIND       PRES   REMARKS
KNOXVILLE      CLOUDY    51  42  71 W7        29.95F
OAK RIDGE      CLOUDY    51  41  68 CALM      29.96F
GATLINBURG     PTSUNNY   48  41  76 VRB3      29.94F
$$

TNZ083-085-099-311800-
SOUTHEAST TENNESSEE

CITY           SKY/WX    TMP DP  RH WIND       PRES   REMARKS
CHATTANOOGA    PTSUNNY   58  41  53 N12       29.97F
$$

SKY/WX REPORTED AS FAIR MEANS FEW OR NO CLOUDS BELOW
12 THOUSAND FEET.




USA.gov is the U.S. government's official web portal to all federal, state and local government web resources and services.